| DS18B20 | SHTC3 | ||||||
|---|---|---|---|---|---|---|---|
| ID | Date d/m/Y & Time | data1 สูง | data2 ต่ำ | data3 นอก | temp pcb | hum pcb | Time |
| 10515 | 10/04/2026 10:07:23 | 29.8  | 28.8  | 31.9  | 29.2  | 66.0  | 10:07 |
| 10514 | 10/04/2026 10:02:41 | 29.6  | 28.7  | 31.4  | 29.2  | 66.2  | 10:02 |
| 10513 | 10/04/2026 09:57:59 | 29.5  | 28.6  | 32.0  | 29.2  | 66.2  | 09:57 |
| 10512 | 10/04/2026 09:53:17 | 29.4  | 28.5  | 32.0  | 29.0  | 66.4  | 09:53 |
| 10511 | 10/04/2026 09:48:36 | 29.2  | 28.4  | 31.5  | 28.9  | 66.6  | 09:48 |
| 10510 | 10/04/2026 09:43:52 | 29.1  | 28.2  | 31.9  | 28.9  | 66.8  | 09:43 |
| 10509 | 10/04/2026 09:39:10 | 29.0  | 28.2  | 31.8  | 28.7  | 66.9  | 09:39 |
| 10508 | 10/04/2026 09:34:29 | 28.9  | 28.1  | 31.6  | 28.4  | 67.0  | 09:34 |
| 10507 | 10/04/2026 09:29:45 | 28.8  | 28.0  | 31.4  | 28.4  | 67.3  | 09:29 |
| 10506 | 10/04/2026 09:25:03 | 28.6  | 27.9  | 31.1  | 28.2  | 67.7  | 09:25 |
| 10505 | 10/04/2026 09:20:21 | 28.4  | 27.8  | 31.2  | 28.2  | 67.8  | 09:20 |
| 10504 | 10/04/2026 09:15:39 | 28.2  | 27.7  | 31.2  | 28.0  | 68.0  | 09:15 |
| 10503 | 10/04/2026 09:10:58 | 28.1  | 27.6  | 30.5  | 28.0  | 68.3  | 09:10 |
| 10502 | 10/04/2026 09:06:16 | 27.9  | 27.5  | 30.2  | 27.6  | 68.5  | 09:06 |
| 10501 | 10/04/2026 09:01:34 | 27.9  | 27.4  | 30.2  | 27.6  | 68.7  | 09:01 |
| 10500 | 10/04/2026 08:56:53 | 27.8  | 27.4  | 29.7  | 27.6  | 68.8  | 08:56 |
| 10499 | 10/04/2026 08:52:09 | 27.6  | 27.3  | 29.7  | 27.4  | 68.9  | 08:52 |
| 10498 | 10/04/2026 08:47:28 | 27.6  | 27.2  | 29.5  | 27.2  | 69.0  | 08:47 |
| 10497 | 10/04/2026 08:42:46 | 27.4  | 27.2  | 29.2  | 27.4  | 69.1  | 08:42 |
| 10496 | 10/04/2026 08:38:04 | 27.4  | 27.1  | 29.0  | 27.3  | 69.2  | 08:38 |
| 10495 | 10/04/2026 08:33:23 | 27.3  | 27.1  | 29.0  | 27.1  | 69.2  | 08:33 |
| 10494 | 10/04/2026 08:28:41 | 27.2  | 27.0  | 28.9  | 27.1  | 69.5  | 08:28 |
| 10493 | 10/04/2026 08:24:00 | 27.1  | 26.9  | 29.0  | 26.9  | 69.6  | 08:24 |
| 10492 | 10/04/2026 08:19:16 | 27.0  | 26.9  | 28.7  | 26.9  | 69.5  | 08:19 |